[[{"header":{"parameterUnit":"m.s-1","parameterCategory":1,"la1":30.2991,"la2":30.254,"lo1":-89.0895,"lo2":-89.0444,"dy":0.0017,"dx":0.0017,"nx":28,"ny":28,"refTime":"2023-08-25T09:00:00:Z","depth":0,"parameterNumber":2,"parameterNumberName":"U-component_of_WINDS"},"data":[0,0,0,0,0,0,0,0,0,0,0,0,0,0,0,0,0,0,0,0,0,0,0,0,0,0,0,0,0,0,0,0,0,0,0,0,0,0,0,0,0,0,0,0,0,0,0,0,0,0,0,0,0,0,0,0,0,0,2.3006,2.3006,0,2.3015,2.3015,2.3015,2.296,2.2959,2.2957,2.2955,2.2966,2.2968,2.2969,0,0,0,0,0,0,0,0,0,0,0,0,0,2.2944,2.2946,2.3006,2.3006,2.3006,2.3015,2.3015,2.3015,2.296,2.2958,2.2957,2.2955,2.2965,2.2968,2.297,0,0,0,0,0,0,0,0,0,0,0,0,0,2.2964,2.2946,2.3006,2.298,2.2978,2.3015,2.3015,2.3015,2.2961,2.2958,2.2956,2.2954,2.2965,2.2967,2.297,2.3033,0,0,2.2978,2.2979,0,0,0,0,0,0,0,0,2.2963,2.2966,2.2984,2.2982,2.2979,2.2984,2.2997,2.3021,2.2961,2.2967,2.2955,2.2953,2.2974,2.2976,2.2983,2.3033,2.3034,2.2978,2.298,2.2981,2.2982,0,0,0,0,0,0,0,2.2962,2.2966,2.3009,2.2984,2.2981,2.2969,2.2969,2.3001,2.2984,2.2967,2.2963,2.2964,2.2972,2.298,2.2982,2.3034,2.2978,2.298,2.2982,2.2983,2.3141,2.3143,0,0,0,0,0,0,2.2963,2.2965,2.3009,2.301,2.2965,2.2972,2.2972,2.2985,2.2983,2.2981,2.2966,2.2962,2.2977,2.2979,2.2983,2.3058,2.2981,2.2983,2.2985,2.3138,2.3141,2.3144,0,0,0,0,0,0,2.2962,2.2968,2.3009,2.2986,2.299,2.2975,2.299,2.2986,2.2994,2.2983,2.298,2.2977,2.2975,2.2979,2.3022,2.3058,2.2984,2.2987,2.3135,2.3139,2.3143,2.321,0,0,0,0,0,0,2.2961,2.2968,2.2991,2.2987,2.2992,2.3047,2.2992,2.2988,2.2998,2.2993,2.2993,2.299,2.2974,2.3018,2.3024,2.306,2.2989,2.3132,2.3137,2.3141,2.3204,2.3215,2.3225,0,0,0,0,0,2.2959,2.3009,2.2992,2.2998,2.302,2.3049,2.3052,2.3031,2.3002,2.3025,2.3019,2.299,2.3053,2.3023,2.3029,2.3067,2.3129,2.3135,2.3141,2.3199,2.3213,2.3225,0,0,0,0,0,0,2.3017,2.3008,2.2989,2.3039,2.3046,2.304,2.3069,2.3046,2.3061,2.3055,2.3029,2.3029,2.3077,2.3076,2.3042,2.3129,2.3086,2.3094,2.3128,2.3141,2.3152,2.3151,2.2991,0,0,0,0,0,2.3036,2.3059,2.305,2.3095,2.3099,2.3084,2.3095,2.3079,2.3085,2.3087,2.3083,2.309,2.3112,2.3126,2.3145,2.3204,2.3204,2.3233,2.3243,2.3252,2.3259,2.3293,2.3306,2.3163,2.3163,2.3163,0,0,2.3074,2.3072,2.3089,2.3107,2.311,2.3136,2.3086,2.3115,2.3135,2.3091,2.3132,2.313,2.3136,2.3188,2.321,2.3188,2.3299,2.3259,2.3266,2.3269,2.33,2.3314,2.3326,2.3167,2.3167,2.3166,0,0,2.3159,2.3159,2.3198,2.3202,2.3207,2.3197,2.3206,2.3205,2.3202,2.3242,2.321,2.3234,2.3271,2.3277,2.3285,2.3375,2.3351,2.3382,2.3437,2.347,2.3481,2.3491,2.3526,2.3538,2.3389,2.3389,2.3389,0,2.3207,2.3244,2.3221,2.3253,2.3263,2.3225,2.3266,2.3271,2.3282,2.3291,2.3266,2.3313,2.3314,2.3368,2.3391,2.3398,2.3409,2.3382,2.3482,2.3491,2.35,2.3533,2.3545,2.3393,2.3393,2.3392,2.3392,0,2.3304,2.3331,2.3362,2.3374,2.3388,2.3424,2.3407,2.3424,2.3407,2.34,2.3443,2.3444,2.3463,2.3475,2.3458,2.3527,2.3514,2.3486,2.3442,2.3518,2.3548,2.356,2.3399,2.3397,2.3396,2.3395,0,0,2.3424,2.3425,2.3437,2.3443,2.3447,2.3468,2.3503,2.3523,2.3539,2.3548,2.3579,2.3612,2.3587,2.3596,2.358,2.3609,2.3684,2.3578,2.3578,2.3599,2.3763,2.3785,2.3799,2.3667,2.3669,2.3671,2.3763,0,2.3509,2.3569,2.355,2.3611,2.3637,2.3603,2.3634,2.3641,2.3635,2.3657,2.3652,2.3677,2.364,2.3646,2.3673,2.3669,2.3716,2.3662,2.3697,2.3698,2.3698,2.3815,2.3838,2.3924,2.3774,2.3776,2.3778,0,2.3614,2.3629,2.3693,2.3695,2.3705,2.3734,2.3751,2.3772,2.378,2.3774,2.3786,2.3765,2.3802,2.3758,2.3809,2.3772,2.3786,2.3786,2.3789,2.3792,2.3743,2.3823,2.3951,2.3965,2.3795,2.3794,2.3793,0,2.3699,2.3734,2.3778,2.3784,2.3787,2.3808,2.3811,2.3816,2.383,2.3845,2.3854,2.3874,2.3885,2.3902,2.3888,2.3856,2.3942,2.3896,2.394,2.3941,2.396,2.396,2.4094,2.3967,2.3967,2.3966,2.3966,0,2.3796,2.3837,2.3816,2.3843,2.3889,2.3868,2.3914,2.3913,2.3918,2.3946,2.3917,2.3943,2.3922,2.3947,2.3936,2.3982,2.3986,2.3984,2.3981,2.3988,2.3988,2.3997,2.3991,2.397,2.3969,2.3968,2.3968,0,2.3898,2.3885,2.3931,2.3931,2.3931,2.3966,2.3966,2.3992,2.3985,2.402,2.4027,2.4017,2.4045,2.4032,2.4062,2.4055,2.4114,2.4102,2.4112,2.4109,2.4155,2.4152,2.4301,2.4321,2.4179,2.418,2.4181,0,2.3961,2.3992,2.3995,2.4012,2.4016,2.4042,2.4057,2.4038,2.4054,2.4067,2.4092,2.4117,2.4137,2.4184,2.418,2.4203,2.4193,2.4244,2.4196,2.4203,2.4196,2.4195,2.4199,2.4254,2.4255,2.4257,2.4258,0,2.4076,2.4069,2.409,2.411,2.4128,2.4143,2.4156,2.4171,2.4152,2.4173,2.4201,2.4217,2.4248,2.4275,2.4295,2.4299,2.4277,2.4273,2.4284,2.4292,2.4297,2.4298,2.414,2.4269,2.4268,2.4267,2.4267,2.4266,2.4161,2.4188,2.4196,2.4221,2.4229,2.4242,2.4267,2.4264,2.4288,2.4311,2.4299,2.4333,2.4343,2.4368,2.4375,2.4403,2.4383,2.4399,2.4404,2.4409,2.4416,2.4292,2.4406,2.4406,2.4406,2.4405,2.4405,0,2.4276,2.428,2.4304,2.4323,2.4344,2.432,2.4333,2.4353,2.4383,2.4393,2.4414,2.4449,2.4475,2.4474,2.4499,2.4521,2.4512,2.4529,2.4528,2.4529,2.4431,2.4419,2.4536,2.4536,2.4536,2.4536,2.4536,2.4536,2.4339,2.4384,2.4378,2.4428,2.4431,2.4465,2.4475,2.4487,2.4496,2.4536,2.4558,2.4557,2.4563,2.4589,2.4613,2.4612,2.4623,2.4645,2.464,2.4549,2.4536,2.4524,2.4512,2.4647,2.4647,2.4736,2.4737,2.4738]},{"header":{"parameterUnit":"m.s-1","parameterCategory":1,"la1":30.2991,"la2":30.254,"lo1":-89.0895,"lo2":-89.0444,"dy":0.0017,"dx":0.0017,"nx":28,"ny":28,"refTime":"2023-08-25T09:00:00:Z","depth":0,"parameterNumber":3,"parameterNumberName":"V-component_of_WINDS"},"data":[0,0,0,0,0,0,0,0,0,0,0,0,0,0,0,0,0,0,0,0,0,0,0,0,0,0,0,0,0,0,0,0,0,0,0,0,0,0,0,0,0,0,0,0,0,0,0,0,0,0,0,0,0,0,0,0,0,0,-3.0137,-3.0138,0,-3.0217,-3.0218,-3.0218,-3.0252,-3.0251,-3.0251,-3.0251,-3.0331,-3.0334,-3.0336,0,0,0,0,0,0,0,0,0,0,0,0,0,-3.0013,-3.0015,-3.0137,-3.0138,-3.0139,-3.0216,-3.0218,-3.0219,-3.0252,-3.0251,-3.0251,-3.0251,-3.0331,-3.0333,-3.0336,0,0,0,0,0,0,0,0,0,0,0,0,0,-3.0077,-3.0016,-3.0136,-3.0165,-3.0168,-3.0216,-3.0218,-3.0219,-3.0252,-3.0251,-3.0251,-3.0251,-3.033,-3.0333,-3.0336,-3.0362,0,0,-3.0347,-3.0348,0,0,0,0,0,0,0,0,-3.0074,-3.0082,-3.0159,-3.0163,-3.0167,-3.0224,-3.0204,-3.0267,-3.0252,-3.022,-3.0251,-3.0251,-3.0296,-3.0302,-3.0317,-3.0366,-3.0369,-3.0347,-3.0349,-3.0351,-3.0352,0,0,0,0,0,0,0,-3.0069,-3.0078,-3.0168,-3.0161,-3.0165,-3.0173,-3.0182,-3.0216,-3.0258,-3.0223,-3.0225,-3.0234,-3.0298,-3.0314,-3.0319,-3.0371,-3.0347,-3.035,-3.0352,-3.0354,-3.0448,-3.0448,0,0,0,0,0,0,-3.006,-3.0075,-3.0166,-3.0171,-3.0119,-3.0176,-3.0186,-3.0206,-3.0258,-3.0266,-3.0234,-3.0236,-3.0308,-3.0315,-3.0322,-3.0359,-3.0351,-3.0354,-3.0356,-3.0448,-3.0448,-3.0449,0,0,0,0,0,0,-3.0057,-3.0068,-3.0163,-3.0123,-3.0136,-3.0178,-3.02,-3.0207,-3.0224,-3.0267,-3.0274,-3.0243,-3.0308,-3.0318,-3.0353,-3.0362,-3.0355,-3.0359,-3.0447,-3.0448,-3.0448,-3.0429,0,0,0,0,0,0,-3.0054,-3.0067,-3.0077,-3.0123,-3.0138,-3.0191,-3.0201,-3.0209,-3.023,-3.0232,-3.0277,-3.0284,-3.0309,-3.0348,-3.0356,-3.0366,-3.0361,-3.0446,-3.0447,-3.0448,-3.0429,-3.0429,-3.0429,0,0,0,0,0,-3.0049,-3.0067,-3.0077,-3.0088,-3.0151,-3.0192,-3.02,-3.0228,-3.023,-3.0241,-3.0269,-3.0283,-3.0359,-3.0351,-3.0361,-3.0372,-3.0446,-3.0447,-3.0448,-3.0429,-3.0429,-3.0429,0,0,0,0,0,0,-3.0019,-3.0073,-3.0085,-3.0119,-3.0151,-3.0197,-3.0212,-3.0227,-3.0258,-3.0259,-3.0292,-3.0302,-3.0335,-3.0357,-3.0347,-3.0402,-3.0404,-3.0407,-3.0386,-3.0386,-3.0386,-3.0381,-3.0364,0,0,0,0,0,-3.0016,-3.0045,-3.0091,-3.0116,-3.0132,-3.0169,-3.0187,-3.0207,-3.0241,-3.0254,-3.0285,-3.0317,-3.0349,-3.0369,-3.04,-3.0433,-3.0444,-3.0445,-3.0445,-3.0445,-3.0447,-3.0469,-3.0471,-3.0452,-3.0452,-3.0452,0,0,-3.001,-3.0044,-3.006,-3.0111,-3.0138,-3.0167,-3.018,-3.0209,-3.0232,-3.0258,-3.0295,-3.0318,-3.0357,-3.0392,-3.0409,-3.0411,-3.0455,-3.0446,-3.0446,-3.0448,-3.047,-3.0472,-3.0474,-3.0453,-3.0453,-3.0452,0,0,-3.0016,-3.0043,-3.0069,-3.0096,-3.0138,-3.0163,-3.0169,-3.0214,-3.0231,-3.0268,-3.029,-3.0317,-3.037,-3.0397,-3.0418,-3.0437,-3.0452,-3.0446,-3.0446,-3.0467,-3.0468,-3.047,-3.0479,-3.0481,-3.0449,-3.0448,-3.0448,0,-3.0004,-3.0049,-3.0079,-3.0109,-3.0132,-3.0159,-3.0186,-3.0211,-3.0259,-3.0275,-3.0277,-3.0346,-3.0374,-3.0417,-3.0422,-3.0437,-3.0446,-3.0441,-3.0466,-3.0468,-3.0469,-3.0478,-3.0481,-3.0448,-3.0448,-3.0448,-3.0448,0,-3.0033,-3.0064,-3.0079,-3.0128,-3.0152,-3.018,-3.0216,-3.0237,-3.0255,-3.028,-3.0319,-3.0353,-3.0393,-3.0405,-3.0421,-3.0451,-3.0452,-3.0459,-3.0462,-3.047,-3.0479,-3.0482,-3.0447,-3.0447,-3.0447,-3.0447,0,0,-3.0019,-3.0087,-3.0092,-3.0116,-3.0165,-3.019,-3.022,-3.026,-3.0278,-3.0312,-3.0339,-3.0384,-3.0393,-3.0417,-3.0437,-3.0455,-3.0471,-3.0461,-3.0462,-3.0463,-3.0509,-3.0504,-3.0507,-3.0481,-3.0482,-3.0482,-3.0506,0,-3.0033,-3.0088,-3.0118,-3.0161,-3.0191,-3.0219,-3.0246,-3.0279,-3.0304,-3.0334,-3.0361,-3.0394,-3.0401,-3.0416,-3.0435,-3.0465,-3.0481,-3.0463,-3.0507,-3.0509,-3.0498,-3.0511,-3.0505,-3.0526,-3.051,-3.051,-3.0511,0,-3.0055,-3.009,-3.0136,-3.0185,-3.0199,-3.0222,-3.0263,-3.0291,-3.033,-3.0347,-3.0375,-3.0396,-3.043,-3.043,-3.0478,-3.0466,-3.0486,-3.0503,-3.0505,-3.0511,-3.0511,-3.0519,-3.0533,-3.0537,-3.0516,-3.0516,-3.0515,0,-3.0043,-3.0101,-3.0138,-3.0157,-3.0214,-3.023,-3.0254,-3.0293,-3.0316,-3.0352,-3.0368,-3.0407,-3.0428,-3.0458,-3.049,-3.0487,-3.0535,-3.0538,-3.0552,-3.0551,-3.0561,-3.056,-3.058,-3.0571,-3.0571,-3.0571,-3.0571,0,-3.0055,-3.0082,-3.0134,-3.0156,-3.0189,-3.0223,-3.0255,-3.0281,-3.0316,-3.0345,-3.0371,-3.0397,-3.0436,-3.0468,-3.0493,-3.053,-3.0539,-3.0555,-3.0561,-3.0553,-3.0551,-3.0567,-3.0567,-3.0572,-3.0572,-3.0572,-3.0572,0,-3.0046,-3.0082,-3.0124,-3.0175,-3.0189,-3.0211,-3.0255,-3.0278,-3.0306,-3.0342,-3.0352,-3.0395,-3.0434,-3.0468,-3.0519,-3.0536,-3.0575,-3.0582,-3.0562,-3.0566,-3.0578,-3.0577,-3.061,-3.0617,-3.0602,-3.0602,-3.0602,0,-3.0052,-3.0075,-3.0129,-3.0151,-3.0176,-3.0209,-3.0234,-3.027,-3.0295,-3.0343,-3.0361,-3.0402,-3.0437,-3.0498,-3.0534,-3.0574,-3.0583,-3.0592,-3.0589,-3.0581,-3.0585,-3.0584,-3.0588,-3.0592,-3.0592,-3.0592,-3.0592,0,-3.0059,-3.0076,-3.0111,-3.0153,-3.0183,-3.0217,-3.0252,-3.0269,-3.0311,-3.0338,-3.0379,-3.0406,-3.046,-3.0501,-3.0545,-3.0571,-3.0589,-3.0592,-3.0598,-3.0591,-3.0579,-3.0588,-3.0563,-3.0591,-3.0591,-3.0591,-3.0591,-3.0591,-3.0059,-3.0082,-3.0125,-3.0164,-3.0195,-3.0228,-3.0253,-3.0285,-3.032,-3.0367,-3.0386,-3.0428,-3.047,-3.0532,-3.0557,-3.0592,-3.0595,-3.0602,-3.0604,-3.0606,-3.0606,-3.0573,-3.0599,-3.0599,-3.06,-3.06,-3.06,0,-3.0069,-3.0099,-3.0135,-3.0184,-3.0216,-3.0231,-3.0272,-3.0297,-3.0334,-3.0371,-3.0406,-3.0455,-3.0496,-3.0536,-3.0579,-3.0599,-3.0608,-3.0609,-3.0608,-3.0615,-3.0599,-3.0591,-3.0601,-3.0601,-3.0601,-3.0601,-3.0601,-3.0601,-3.0078,-3.0118,-3.0141,-3.0197,-3.0226,-3.0269,-3.0291,-3.0322,-3.0353,-3.0406,-3.0441,-3.0467,-3.0507,-3.0554,-3.0592,-3.0603,-3.0619,-3.0618,-3.0631,-3.0616,-3.0615,-3.0615,-3.0607,-3.062,-3.062,-3.0644,-3.0644,-3.0644]}]]